,,,PA_Meas_PMT16A,,PR_Meas_QMR101_102,,RH_Meas_QMH101,,SR_Meas_QMS101,,TA_Meas_QMH101,,GenWind,,GenWind,
date,time,status,PA,status,PR,status,RH,status,SR,status,TA,status,DirAvg,status,SpdAvg,
2010-09-19, 00:00:04,VALID,1003.24,VALID,0,VALID,87.9305,VALID,0,VALID,26.1375,VALID,78,VALID,1.27734,
2010-09-19, 00:01:04,VALID,1003.26,VALID,0,VALID,87.9381,VALID,0,VALID,26.155,VALID,52,VALID,1.44805,
2010-09-19, 00:02:04,VALID,1003.23,VALID,0,VALID,87.8923,VALID,0,VALID,26.1959,VALID,93,VALID,1.52227,
2010-09-19, 00:03:04,VALID,1003.27,VALID,0,VALID,88.0144,VALID,0,VALID,26.155,VALID,91,VALID,0.701953,
2010-09-19, 00:04:04,VALID,1003.31,VALID,0,VALID,88.0831,VALID,0,VALID,26.157,VALID,65,VALID,0.787891,
2010-09-19, 00:05:04,VALID,1003.32,VALID,0,VALID,88.167,VALID,0,VALID,26.1375,VALID,86,VALID,0.772266,
2010-09-19, 00:06:04,VALID,1003.33,VALID,0,VALID,88.2738,VALID,0,VALID,26.0966,VALID,66,VALID,1.33398,
2010-09-19, 00:07:04,VALID,1003.39,VALID,0,VALID,88.5408,VALID,0,VALID,26.0985,VALID,100,VALID,0.771875,
2010-09-19, 00:08:04,VALID,1003.42,VALID,0,VALID,88.7086,VALID,0,VALID,26.0401,VALID,95,VALID,0.403516,
2010-09-19, 00:09:04,VALID,1003.46,VALID,0,VALID,88.9375,VALID,0,VALID,26.0187,VALID,80,VALID,0.979297,
2010-09-19, 00:10:04,VALID,1003.48,VALID,0,VALID,89.2808,VALID,0,VALID,26.0206,VALID,120,VALID,1.44492,
2010-09-19, 00:11:04,VALID,1003.51,VALID,0,VALID,89.7385,VALID,0,VALID,25.9797,VALID,69,VALID,0.772266,
2010-09-19, 00:12:04,VALID,1003.56,VALID,0,VALID,89.9064,VALID,0,VALID,25.9797,VALID,59,VALID,0.966406,
2010-09-19, 00:13:04,VALID,1003.63,VALID,0,VALID,90.181,VALID,0,VALID,25.9817,VALID,111,VALID,0.966016,
2010-09-19, 00:14:04,VALID,1003.65,VALID,0,VALID,90.3183,VALID,0,VALID,25.9817,VALID,109,VALID,1.45977,
2010-09-19, 00:15:04,VALID,1003.74,VALID,0,VALID,90.5701,VALID,0,VALID,25.9797,VALID,99,VALID,0.832812,
2010-09-19, 00:16:04,VALID,1003.81,VALID,0,VALID,90.8752,VALID,0,VALID,26.0012,VALID,91,VALID,1.27109,
2010-09-19, 00:17:04,VALID,1003.83,VALID,0,VALID,90.6387,VALID,0,VALID,25.9992,VALID,97,VALID,0.78125,
2010-09-19, 00:18:04,VALID,1003.83,VALID,0,VALID,90.4633,VALID,0,VALID,26.0187,VALID,63,VALID,0.711328,
2010-09-19, 00:19:04,VALID,1003.84,VALID,0,VALID,90.7837,VALID,0,VALID,26.0381,VALID,73,VALID,0.334766,
2010-09-19, 00:20:04,VALID,1003.85,VALID,0,VALID,90.4022,VALID,0.100563,VALID,26.0381,VALID,109,VALID,1.11484,
2010-09-19, 00:21:04,VALID,1003.89,VALID,0,VALID,90.4099,VALID,0,VALID,26.0576,VALID,51,VALID,0.590625,
2010-09-19, 00:22:04,VALID,1003.86,VALID,0,VALID,90.3031,VALID,0,VALID,26.0771,VALID,87,VALID,0.369141,
2010-09-19, 00:23:04,VALID,1003.86,VALID,0,VALID,89.8911,VALID,0,VALID,26.0771,VALID,119,VALID,1.1043,
2010-09-19, 00:24:04,VALID,1003.85,VALID,0,VALID,89.7156,VALID,0,VALID,26.116,VALID,40,VALID,0.750391,
2010-09-19, 00:25:04,VALID,1003.88,VALID,0,VALID,89.6165,VALID,0,VALID,26.116,VALID,39,VALID,0.303906,
2010-09-19, 00:26:04,VALID,1003.85,VALID,0,VALID,89.5554,VALID,0,VALID,26.118,VALID,89,VALID,0.935547,
2010-09-19, 00:27:04,VALID,1003.85,VALID,0,VALID,89.4715,VALID,0,VALID,26.1375,VALID,62,VALID,0.819141,
2010-09-19, 00:28:04,VALID,1003.82,VALID,0,VALID,89.1816,VALID,0,VALID,26.116,VALID,12,VALID,0.383594,
2010-09-19, 00:29:04,VALID,1003.81,VALID,0,VALID,89.0901,VALID,0,VALID,26.116,VALID,27,VALID,0.808984,
2010-09-19, 00:30:04,VALID,1003.8,VALID,0,VALID,89.235,VALID,0,VALID,26.118,VALID,40,VALID,0.845312,
2010-09-19, 00:31:04,VALID,1003.8,VALID,0,VALID,89.441,VALID,0,VALID,26.116,VALID,64,VALID,0.711328,
2010-09-19, 00:32:04,VALID,1003.84,VALID,0,VALID,89.2045,VALID,0,VALID,26.1355,VALID,47,VALID,0.741797,
2010-09-19, 00:33:04,VALID,1003.84,VALID,0,VALID,89.1053,VALID,0,VALID,26.1335,VALID,82,VALID,0.465234,
2010-09-19, 00:34:04,VALID,1003.86,VALID,0,VALID,89.0672,VALID,0,VALID,26.157,VALID,22,VALID,0.613672,
2010-09-19, 00:35:04,VALID,1003.89,VALID,0,VALID,88.8383,VALID,0,VALID,26.116,VALID,55,VALID,0.873828,
2010-09-19, 00:36:04,VALID,1003.88,VALID,0,VALID,88.701,VALID,0,VALID,26.155,VALID,65,VALID,0.632031,
2010-09-19, 00:37:04,VALID,1003.91,VALID,0,VALID,88.289,VALID,0,VALID,26.1745,VALID,62,VALID,1.3293,
2010-09-19, 00:38:04,VALID,1003.92,VALID,0,VALID,88.2127,VALID,0,VALID,26.194,VALID,26,VALID,0.46875,
2010-09-19, 00:39:04,VALID,1003.98,VALID,0,VALID,87.8008,VALID,0,VALID,26.2134,VALID,88,VALID,0.642969,
2010-09-19, 00:40:04,VALID,1004,VALID,0,VALID,87.6787,VALID,0,VALID,26.2524,VALID,51,VALID,0.454688,
2010-09-19, 00:41:04,VALID,1004.01,VALID,0,VALID,87.16,VALID,0,VALID,26.3108,VALID,77,VALID,1.51172,
2010-09-19, 00:42:04,VALID,1003.98,VALID,0,VALID,86.6488,VALID,0,VALID,26.3907,VALID,82,VALID,1.90078,
2010-09-19, 00:43:04,VALID,1004,VALID,0,VALID,85.8707,VALID,0,VALID,26.4667,VALID,110,VALID,1.76797,
2010-09-19, 00:44:04,VALID,1004.04,VALID,0,VALID,85.7639,VALID,0,VALID,26.5446,VALID,89,VALID,0.847656,
2010-09-19, 00:45:04,VALID,1004.05,VALID,0,VALID,85.3824,VALID,0,VALID,26.5446,VALID,110,VALID,1.13906,
2010-09-19, 00:46:04,VALID,1004.09,VALID,0,VALID,85.3138,VALID,0,VALID,26.5641,VALID,72,VALID,0.933984,
2010-09-19, 00:47:04,VALID,1004.11,VALID,0,VALID,85.4663,VALID,0,VALID,26.5641,VALID,61,VALID,1.17773,
2010-09-19, 00:48:04,VALID,1004.09,VALID,0,VALID,85.0849,VALID,0.100563,VALID,26.562,VALID,106,VALID,1.38945,
2010-09-19, 00:49:04,VALID,1004.14,VALID,0,VALID,85.1078,VALID,0,VALID,26.6245,VALID,35,VALID,0.865625,
2010-09-19, 00:50:04,VALID,1004.13,VALID,0,VALID,85.0086,VALID,0,VALID,26.5835,VALID,43,VALID,1.21133,
2010-09-19, 00:51:04,VALID,1004.18,VALID,0,VALID,85.0468,VALID,0,VALID,26.603,VALID,79,VALID,1.32266,
2010-09-19, 00:52:04,VALID,1004.17,VALID,0,VALID,84.9018,VALID,0,VALID,26.6225,VALID,87,VALID,1.41836,
2010-09-19, 00:53:04,VALID,1004.19,VALID,0,VALID,84.8789,VALID,0.100563,VALID,26.6225,VALID,87,VALID,1.1168,
2010-09-19, 00:54:04,VALID,1004.21,VALID,0,VALID,84.7569,VALID,0,VALID,26.644,VALID,43,VALID,1.82617,
2010-09-19, 00:55:04,VALID,1004.21,VALID,0,VALID,84.6272,VALID,0,VALID,26.7024,VALID,102,VALID,1.66211,
2010-09-19, 00:56:04,VALID,1004.24,VALID,0,VALID,84.4441,VALID,0,VALID,26.7024,VALID,89,VALID,1.11563,
2010-09-19, 00:57:04,VALID,1004.23,VALID,0,VALID,84.4364,VALID,0,VALID,26.6809,VALID,99,VALID,1.42578,
2010-09-19, 00:58:04,VALID,1004.22,VALID,0,VALID,84.5356,VALID,0,VALID,26.6614,VALID,21,VALID,0.964063,
2010-09-19, 00:59:04,VALID,1004.29,VALID,0,VALID,84.4975,VALID,0,VALID,26.7024,VALID,85,VALID,1.79883,
2010-09-19, 01:00:04,VALID,1004.23,VALID,0,VALID,84.2762,VALID,0.100563,VALID,26.7199,VALID,110,VALID,2.00586,
2010-09-19, 01:01:04,VALID,1004.25,VALID,0,VALID,84.2762,VALID,0,VALID,26.7394,VALID,124,VALID,1.84375,
2010-09-19, 01:02:04,VALID,1004.29,VALID,0,VALID,84.2762,VALID,0,VALID,26.7179,VALID,79,VALID,0.983203,
2010-09-19, 01:03:04,VALID,1004.32,VALID,0,VALID,84.2381,VALID,0,VALID,26.7394,VALID,102,VALID,1.09883,
2010-09-19, 01:04:04,VALID,1004.32,VALID,0,VALID,84.3296,VALID,0,VALID,26.7394,VALID,125,VALID,2.27852,
2010-09-19, 01:05:04,VALID,1004.34,VALID,0,VALID,84.1771,VALID,0,VALID,26.7978,VALID,113,VALID,2.38789,
2010-09-19, 01:06:04,VALID,1004.37,VALID,0,VALID,84.1389,VALID,0,VALID,26.7978,VALID,107,VALID,2.12734,
2010-09-19, 01:07:04,VALID,1004.35,VALID,0,VALID,84.1618,VALID,0,VALID,26.7978,VALID,98,VALID,1.15,
2010-09-19, 01:08:04,VALID,1004.36,VALID,0,VALID,84.3983,VALID,0,VALID,26.7394,VALID,46,VALID,0.472266,
2010-09-19, 01:09:04,VALID,1004.39,VALID,0,VALID,84.5967,VALID,0,VALID,26.7199,VALID,55,VALID,1.30195,
2010-09-19, 01:10:04,VALID,1004.4,VALID,0,VALID,84.7797,VALID,0.100563,VALID,26.7004,VALID,90,VALID,0.887891,
2010-09-19, 01:11:04,VALID,1004.4,VALID,0,VALID,84.7797,VALID,0,VALID,26.6809,VALID,80,VALID,2.20586,
2010-09-19, 01:12:04,VALID,1004.4,VALID,0,VALID,84.8408,VALID,0,VALID,26.6614,VALID,102,VALID,1.6625,
2010-09-19, 01:13:04,VALID,1004.47,VALID,0,VALID,84.9247,VALID,0.100563,VALID,26.6614,VALID,90,VALID,1.22539,
2010-09-19, 01:14:04,VALID,1004.44,VALID,0,VALID,85.0849,VALID,0,VALID,26.6225,VALID,56,VALID,1.65898,
2010-09-19, 01:15:04,VALID,1004.45,VALID,0,VALID,84.8408,VALID,0,VALID,26.6614,VALID,93,VALID,1.46211,
2010-09-19, 01:16:04,VALID,1004.49,VALID,0,VALID,84.9171,VALID,0,VALID,26.6614,VALID,75,VALID,1.62773,
2010-09-19, 01:17:04,VALID,1004.44,VALID,0,VALID,84.7035,VALID,0,VALID,26.7414,VALID,23,VALID,1.48672,
2010-09-19, 01:18:04,VALID,1004.48,VALID,0,VALID,84.6424,VALID,0,VALID,26.7004,VALID,67,VALID,1.38594,
2010-09-19, 01:19:04,VALID,1004.47,VALID,0,VALID,84.7569,VALID,0,VALID,26.7024,VALID,57,VALID,1.30195,
2010-09-19, 01:20:04,VALID,1004.46,VALID,0,VALID,84.8179,VALID,0,VALID,26.7024,VALID,110,VALID,0.798828,
2010-09-19, 01:21:04,VALID,1004.45,VALID,0,VALID,84.8637,VALID,0,VALID,26.6635,VALID,26,VALID,1.36797,
2010-09-19, 01:22:04,VALID,1004.49,VALID,0,VALID,84.6424,VALID,0.100563,VALID,26.6809,VALID,76,VALID,1.66094,
2010-09-19, 01:23:04,VALID,1004.47,VALID,0,VALID,84.7035,VALID,0,VALID,26.7024,VALID,103,VALID,1.86094,
2010-09-19, 01:24:04,VALID,1004.48,VALID,0,VALID,84.6958,VALID,0,VALID,26.6809,VALID,107,VALID,2.26328,
2010-09-19, 01:25:04,VALID,1004.47,VALID,0,VALID,84.7187,VALID,0,VALID,26.7219,VALID,82,VALID,1.24102,
2010-09-19, 01:26:04,VALID,1004.48,VALID,0,VALID,84.9247,VALID,0,VALID,26.6809,VALID,88,VALID,1.70195,
2010-09-19, 01:27:04,VALID,1004.49,VALID,0,VALID,84.6501,VALID,0,VALID,26.6809,VALID,89,VALID,1.81602,
2010-09-19, 01:28:04,VALID,1004.51,VALID,0,VALID,84.6043,VALID,0,VALID,26.7024,VALID,56,VALID,1.73633,
2010-09-19, 01:29:04,VALID,1004.49,VALID,0,VALID,84.734,VALID,0,VALID,26.6809,VALID,67,VALID,0.819922,
2010-09-19, 01:30:04,VALID,1004.49,VALID,0,VALID,84.7721,VALID,0,VALID,26.683,VALID,78,VALID,1.09766,
2010-09-19, 01:31:04,VALID,1004.47,VALID,0,VALID,84.8637,VALID,0,VALID,26.6635,VALID,38,VALID,0.728906,
2010-09-19, 01:32:04,VALID,1004.5,VALID,0,VALID,84.8942,VALID,0,VALID,26.644,VALID,82,VALID,2.4043,
2010-09-19, 01:33:04,VALID,1004.47,VALID,0,VALID,84.9781,VALID,0,VALID,26.6225,VALID,61,VALID,1.23672,
2010-09-19, 01:34:04,VALID,1004.47,VALID,0,VALID,84.9705,VALID,0,VALID,26.603,VALID,85,VALID,2.04805,
2010-09-19, 01:35:04,VALID,1004.47,VALID,0,VALID,85.001,VALID,0,VALID,26.644,VALID,112,VALID,1.41992,
2010-09-19, 01:36:04,VALID,1004.42,VALID,0,VALID,84.9628,VALID,0,VALID,26.644,VALID,100,VALID,0.968359,
2010-09-19, 01:37:04,VALID,1004.46,VALID,0,VALID,84.9628,VALID,0,VALID,26.603,VALID,75,VALID,1.83594,
2010-09-19, 01:38:04,VALID,1004.42,VALID,0,VALID,84.9323,VALID,0,VALID,26.603,VALID,110,VALID,1.61172,
2010-09-19, 01:39:04,VALID,1004.4,VALID,0,VALID,84.795,VALID,0.100563,VALID,26.6245,VALID,96,VALID,1.37812,
2010-09-19, 01:40:04,VALID,1004.38,VALID,0,VALID,84.8255,VALID,0,VALID,26.603,VALID,92,VALID,1.65391,
2010-09-19, 01:41:04,VALID,1004.4,VALID,0,VALID,84.8637,VALID,0,VALID,26.605,VALID,97,VALID,1.49141,
2010-09-19, 01:42:04,VALID,1004.37,VALID,0,VALID,84.8026,VALID,0,VALID,26.5835,VALID,103,VALID,1.9082,
2010-09-19, 01:43:04,VALID,1004.36,VALID,0,VALID,84.5814,VALID,0.100563,VALID,26.603,VALID,75,VALID,2.40898,
2010-09-19, 01:44:04,VALID,1004.4,VALID,0,VALID,84.5509,VALID,0,VALID,26.644,VALID,78,VALID,0.991016,
2010-09-19, 01:45:04,VALID,1004.35,VALID,0,VALID,84.4441,VALID,0,VALID,26.642,VALID,95,VALID,1.73867,
2010-09-19, 01:46:04,VALID,1004.38,VALID,0,VALID,84.1313,VALID,0,VALID,26.6614,VALID,74,VALID,1.4082,
2010-09-19, 01:47:04,VALID,1004.34,VALID,0,VALID,83.8719,VALID,0,VALID,26.7629,VALID,92,VALID,1.91328,
2010-09-19, 01:48:04,VALID,1004.36,VALID,0,VALID,83.6888,VALID,0,VALID,26.7414,VALID,100,VALID,1.86289,
2010-09-19, 01:49:04,VALID,1004.33,VALID,0,VALID,83.6507,VALID,0.100563,VALID,26.7589,VALID,59,VALID,1.00039,
2010-09-19, 01:50:04,VALID,1004.28,VALID,0,VALID,83.5134,VALID,0,VALID,26.7804,VALID,90,VALID,2.23906,
2010-09-19, 01:51:04,VALID,1004.32,VALID,0,VALID,83.4828,VALID,0,VALID,26.7804,VALID,95,VALID,2.37812,
2010-09-19, 01:52:04,VALID,1004.28,VALID,0,VALID,83.1853,VALID,0,VALID,26.7978,VALID,57,VALID,2.16914,
2010-09-19, 01:53:04,VALID,1004.27,VALID,0,VALID,83.1701,VALID,0,VALID,26.7978,VALID,94,VALID,2.07578,
2010-09-19, 01:54:04,VALID,1004.26,VALID,0,VALID,83.1853,VALID,0,VALID,26.7998,VALID,98,VALID,2.24922,
2010-09-19, 01:55:04,VALID,1004.25,VALID,0,VALID,83.3684,VALID,0,VALID,26.7804,VALID,89,VALID,1.42656,
2010-09-19, 01:56:04,VALID,1004.24,VALID,0,VALID,83.3837,VALID,0,VALID,26.7589,VALID,62,VALID,1.025,
2010-09-19, 01:57:04,VALID,1004.23,VALID,0,VALID,83.4905,VALID,0,VALID,26.7414,VALID,92,VALID,1.76797,
2010-09-19, 01:58:04,VALID,1004.24,VALID,0,VALID,83.6202,VALID,0,VALID,26.7219,VALID,67,VALID,1.19453,
2010-09-19, 01:59:04,VALID,1004.26,VALID,0,VALID,83.5515,VALID,0,VALID,26.7004,VALID,98,VALID,2.25781,
2010-09-19, 02:00:04,VALID,1004.25,VALID,0,VALID,83.6964,VALID,0,VALID,26.7024,VALID,113,VALID,1.0793,
2010-09-19, 02:01:04,VALID,1004.24,VALID,0,VALID,83.7041,VALID,0,VALID,26.6614,VALID,94,VALID,1.9625,
2010-09-19, 02:02:04,VALID,1004.29,VALID,0,VALID,83.5896,VALID,0,VALID,26.6809,VALID,91,VALID,2.73125,
2010-09-19, 02:03:04,VALID,1004.29,VALID,0,VALID,83.6125,VALID,0,VALID,26.7024,VALID,93,VALID,1.48945,
2010-09-19, 02:04:04,VALID,1004.28,VALID,0,VALID,83.6964,VALID,0,VALID,26.683,VALID,98,VALID,1.10664,
2010-09-19, 02:05:04,VALID,1004.3,VALID,0,VALID,83.7346,VALID,0,VALID,26.683,VALID,106,VALID,1.87461,
2010-09-19, 02:06:04,VALID,1004.35,VALID,0,VALID,83.7651,VALID,0,VALID,26.683,VALID,79,VALID,2.5293,
2010-09-19, 02:07:04,VALID,1004.34,VALID,0,VALID,83.7575,VALID,0,VALID,26.6635,VALID,92,VALID,1.82891,
2010-09-19, 02:08:04,VALID,1004.38,VALID,0,VALID,83.8795,VALID,0.100563,VALID,26.642,VALID,28,VALID,1.60859,
2010-09-19, 02:09:04,VALID,1004.41,VALID,0,VALID,83.643,VALID,0,VALID,26.683,VALID,101,VALID,2.62578,
2010-09-19, 02:10:04,VALID,1004.44,VALID,0,VALID,83.5744,VALID,0.100563,VALID,26.6809,VALID,62,VALID,0.691797,
2010-09-19, 02:11:04,VALID,1004.48,VALID,0,VALID,83.3303,VALID,0,VALID,26.6809,VALID,87,VALID,1.56953,
2010-09-19, 02:12:04,VALID,1004.49,VALID,0,VALID,83.2235,VALID,0,VALID,26.7219,VALID,88,VALID,1.54336,
2010-09-19, 02:13:04,VALID,1004.53,VALID,0,VALID,83.315,VALID,0,VALID,26.7004,VALID,89,VALID,1.12422,
2010-09-19, 02:14:04,VALID,1004.49,VALID,0,VALID,83.1777,VALID,0,VALID,26.6809,VALID,72,VALID,1.525,
2010-09-19, 02:15:04,VALID,1004.51,VALID,0,VALID,83.2006,VALID,0,VALID,26.6614,VALID,41,VALID,1.66992,
2010-09-19, 02:16:04,VALID,1004.53,VALID,0,VALID,83.1395,VALID,0,VALID,26.6809,VALID,79,VALID,1.41133,
2010-09-19, 02:17:04,VALID,1004.55,VALID,0,VALID,82.987,VALID,0.100563,VALID,26.7219,VALID,67,VALID,2.08555,
2010-09-19, 02:18:04,VALID,1004.59,VALID,0,VALID,83.1014,VALID,0.100563,VALID,26.7219,VALID,89,VALID,1.41133,
2010-09-19, 02:19:04,VALID,1004.55,VALID,0,VALID,83.2921,VALID,0,VALID,26.642,VALID,100,VALID,1.6625,
2010-09-19, 02:20:04,VALID,1004.56,VALID,0,VALID,83.3226,VALID,0,VALID,26.6635,VALID,76,VALID,1.67813,
2010-09-19, 02:21:04,VALID,1004.63,VALID,0,VALID,83.2997,VALID,0,VALID,26.642,VALID,73,VALID,1.63047,
2010-09-19, 02:22:04,VALID,1004.58,VALID,0,VALID,83.2235,VALID,0,VALID,26.6635,VALID,42,VALID,1.55313,
2010-09-19, 02:23:04,VALID,1004.6,VALID,0,VALID,83.3379,VALID,0,VALID,26.642,VALID,97,VALID,1.78047,
2010-09-19, 02:24:04,VALID,1004.61,VALID,0,VALID,83.4218,VALID,0,VALID,26.6245,VALID,82,VALID,1.7543,
2010-09-19, 02:25:04,VALID,1004.66,VALID,0,VALID,83.6125,VALID,0,VALID,26.5855,VALID,76,VALID,0.888281,
2010-09-19, 02:26:04,VALID,1004.66,VALID,0,VALID,83.582,VALID,0,VALID,26.5641,VALID,53,VALID,0.978906,
2010-09-19, 02:27:04,VALID,1004.66,VALID,0,VALID,83.4447,VALID,0,VALID,26.5641,VALID,54,VALID,0.855859,
2010-09-19, 02:28:04,VALID,1004.75,VALID,0,VALID,83.5973,VALID,0,VALID,26.5855,VALID,52,VALID,0.792969,
2010-09-19, 02:29:04,VALID,1004.7,VALID,0,VALID,83.3913,VALID,0,VALID,26.5835,VALID,90,VALID,2.06602,
2010-09-19, 02:30:04,VALID,1004.71,VALID,0,VALID,83.4523,VALID,0,VALID,26.605,VALID,18,VALID,0.992188,
2010-09-19, 02:31:04,VALID,1004.75,VALID,0,VALID,83.5515,VALID,0,VALID,26.5661,VALID,98,VALID,1.40742,
2010-09-19, 02:32:04,VALID,1004.75,VALID,0,VALID,83.4981,VALID,0,VALID,26.5661,VALID,76,VALID,1.55781,
2010-09-19, 02:33:04,VALID,1004.78,VALID,0,VALID,83.2845,VALID,0,VALID,26.605,VALID,47,VALID,0.925781,
2010-09-19, 02:34:04,VALID,1004.79,VALID,0,VALID,83.3074,VALID,0,VALID,26.6245,VALID,71,VALID,0.6,
2010-09-19, 02:35:04,VALID,1004.81,VALID,0,VALID,83.0632,VALID,0,VALID,26.603,VALID,134,VALID,1.75781,
2010-09-19, 02:36:04,VALID,1004.81,VALID,0,VALID,83.0632,VALID,0.100563,VALID,26.644,VALID,81,VALID,1.14961,
2010-09-19, 02:37:04,VALID,1004.82,VALID,0,VALID,83.0709,VALID,0,VALID,26.6655,VALID,100,VALID,1.51758,
2010-09-19, 02:38:04,VALID,1004.81,VALID,0,VALID,82.9107,VALID,0,VALID,26.6245,VALID,109,VALID,1.60625,
2010-09-19, 02:39:04,VALID,1004.84,VALID,0,VALID,83.0556,VALID,0,VALID,26.644,VALID,76,VALID,2.025,
2010-09-19, 02:40:04,VALID,1004.83,VALID,0,VALID,83.1014,VALID,0,VALID,26.6245,VALID,17,VALID,1.34023,
2010-09-19, 02:41:04,VALID,1004.81,VALID,0,VALID,83.1777,VALID,0,VALID,26.6245,VALID,43,VALID,0.606641,
2010-09-19, 02:42:04,VALID,1004.84,VALID,0,VALID,83.2616,VALID,0.100563,VALID,26.605,VALID,25,VALID,0.741406,
2010-09-19, 02:43:04,VALID,1004.8,VALID,0,VALID,83.3608,VALID,0,VALID,26.5661,VALID,19,VALID,0.975781,
2010-09-19, 02:44:04,VALID,1004.81,VALID,0,VALID,83.4065,VALID,0,VALID,26.5251,VALID,80,VALID,1.21953,
2010-09-19, 02:45:04,VALID,1004.83,VALID,0,VALID,83.2158,VALID,0,VALID,26.5661,VALID,20,VALID,1.52969,
2010-09-19, 02:46:04,VALID,1004.82,VALID,0,VALID,83.2387,VALID,0,VALID,26.6245,VALID,47,VALID,1.30508,
2010-09-19, 02:47:04,VALID,1004.8,VALID,0,VALID,83.1548,VALID,0,VALID,26.605,VALID,34,VALID,0.433984,
2010-09-19, 02:48:04,VALID,1004.82,VALID,0,VALID,83.3303,VALID,0,VALID,26.5855,VALID,50,VALID,1.30352,
2010-09-19, 02:49:04,VALID,1004.8,VALID,0,VALID,83.4294,VALID,0,VALID,26.5661,VALID,45,VALID,0.916797,
2010-09-19, 02:50:04,VALID,1004.78,VALID,0,VALID,83.3531,VALID,0,VALID,26.5466,VALID,350,VALID,0.282422,
2010-09-19, 02:51:04,VALID,1004.78,VALID,0,VALID,83.4142,VALID,0,VALID,26.5056,VALID,47,VALID,1.17852,
2010-09-19, 02:52:04,VALID,1004.81,VALID,0,VALID,83.3303,VALID,0,VALID,26.5661,VALID,87,VALID,1.22617,
2010-09-19, 02:53:04,VALID,1004.81,VALID,0,VALID,83.1624,VALID,0,VALID,26.603,VALID,100,VALID,1.17031,
2010-09-19, 02:54:04,VALID,1004.76,VALID,0,VALID,83.109,VALID,0,VALID,26.605,VALID,19,VALID,0.930859,
2010-09-19, 02:55:04,VALID,1004.77,VALID,0,VALID,83.0556,VALID,0,VALID,26.6245,VALID,121,VALID,1.68438,
2010-09-19, 02:56:04,VALID,1004.78,VALID,0,VALID,83.048,VALID,0.100563,VALID,26.6225,VALID,97,VALID,1.13984,
2010-09-19, 02:57:04,VALID,1004.73,VALID,0,VALID,83.1243,VALID,0,VALID,26.603,VALID,100,VALID,0.428125,
2010-09-19, 02:58:04,VALID,1004.73,VALID,0,VALID,83.1243,VALID,0,VALID,26.603,VALID,48,VALID,0.773047,
2010-09-19, 02:59:04,VALID,1004.74,VALID,0,VALID,83.0556,VALID,0,VALID,26.6225,VALID,96,VALID,2.61602,
2010-09-19, 03:00:04,VALID,1004.73,VALID,0,VALID,83.0938,VALID,0.100563,VALID,26.642,VALID,55,VALID,1.12812,
2010-09-19, 03:01:04,VALID,1004.71,VALID,0,VALID,82.9793,VALID,0,VALID,26.6225,VALID,117,VALID,1.79375,
2010-09-19, 03:02:04,VALID,1004.67,VALID,0,VALID,83.1395,VALID,0.100563,VALID,26.642,VALID,46,VALID,0.945313,
2010-09-19, 03:03:04,VALID,1004.66,VALID,0,VALID,83.109,VALID,0.100563,VALID,26.6245,VALID,39,VALID,1.0375,
2010-09-19, 03:04:04,VALID,1004.66,VALID,0,VALID,83.1929,VALID,0.100563,VALID,26.605,VALID,92,VALID,1.24219,
2010-09-19, 03:05:04,VALID,1004.69,VALID,0,VALID,83.3608,VALID,0.100563,VALID,26.5835,VALID,79,VALID,0.751562,
2010-09-19, 03:06:04,VALID,1004.7,VALID,0,VALID,83.2616,VALID,0,VALID,26.5835,VALID,23,VALID,1.91836,
2010-09-19, 03:07:04,VALID,1004.71,VALID,0,VALID,83.2921,VALID,0,VALID,26.5835,VALID,48,VALID,0.909766,
2010-09-19, 03:08:04,VALID,1004.72,VALID,0,VALID,83.3074,VALID,0.100563,VALID,26.5835,VALID,59,VALID,0.668359,
2010-09-19, 03:09:04,VALID,1004.68,VALID,0,VALID,83.2997,VALID,0.100563,VALID,26.5641,VALID,52,VALID,0.793359,
2010-09-19, 03:10:04,VALID,1004.74,VALID,0,VALID,83.4447,VALID,0.100563,VALID,26.5446,VALID,95,VALID,0.666016,
2010-09-19, 03:11:04,VALID,1004.72,VALID,0,VALID,83.6049,VALID,0,VALID,26.5466,VALID,30,VALID,0.496875,
2010-09-19, 03:12:04,VALID,1004.73,VALID,0,VALID,83.727,VALID,0,VALID,26.5271,VALID,102,VALID,1.12148,
2010-09-19, 03:13:04,VALID,1004.72,VALID,0,VALID,83.6659,VALID,0.100563,VALID,26.5271,VALID,17,VALID,1.53945,
2010-09-19, 03:14:04,VALID,1004.69,VALID,0,VALID,83.849,VALID,0.100563,VALID,26.4861,VALID,19,VALID,0.481641,
2010-09-19, 03:15:04,VALID,1004.7,VALID,0,VALID,83.788,VALID,0,VALID,26.5271,VALID,24,VALID,0.949219,
2010-09-19, 03:16:04,VALID,1004.67,VALID,0,VALID,83.7956,VALID,0,VALID,26.5056,VALID,94,VALID,0.785937,
2010-09-19, 03:17:04,VALID,1004.69,VALID,0,VALID,83.7193,VALID,0,VALID,26.5271,VALID,76,VALID,1.07734,
2010-09-19, 03:18:04,VALID,1004.68,VALID,0,VALID,83.7651,VALID,0,VALID,26.5056,VALID,111,VALID,0.688672,
2010-09-19, 03:19:04,VALID,1004.68,VALID,0,VALID,83.7498,VALID,0,VALID,26.5076,VALID,71,VALID,0.9,
2010-09-19, 03:20:04,VALID,1004.68,VALID,0,VALID,83.9558,VALID,0,VALID,26.4667,VALID,55,VALID,0.217578,
2010-09-19, 03:21:04,VALID,1004.68,VALID,0,VALID,84.0169,VALID,0,VALID,26.4472,VALID,78,VALID,0.494141,
2010-09-19, 03:22:04,VALID,1004.68,VALID,0,VALID,84.1923,VALID,0,VALID,26.4277,VALID,53,VALID,0.635938,
2010-09-19, 03:23:04,VALID,1004.7,VALID,0,VALID,84.4212,VALID,0,VALID,26.4102,VALID,74,VALID,1.05078,
2010-09-19, 03:24:04,VALID,1004.71,VALID,0,VALID,84.6729,VALID,0,VALID,26.3693,VALID,35,VALID,0.348047,
2010-09-19, 03:25:04,VALID,1004.66,VALID,0,VALID,84.8789,VALID,0,VALID,26.3303,VALID,73,VALID,0.508594,
2010-09-19, 03:26:04,VALID,1004.63,VALID,0,VALID,84.856,VALID,0,VALID,26.3108,VALID,96,VALID,1.18867,
2010-09-19, 03:27:04,VALID,1004.56,VALID,0,VALID,84.8637,VALID,0,VALID,26.3518,VALID,82,VALID,0.267969,
2010-09-19, 03:28:04,VALID,1004.51,VALID,0,VALID,84.9323,VALID,0,VALID,26.3128,VALID,32,VALID,0.613672,
2010-09-19, 03:29:04,VALID,1004.51,VALID,0,VALID,85.1459,VALID,0,VALID,26.2933,VALID,52,VALID,0.262891,
2010-09-19, 03:30:04,VALID,1004.53,VALID,0,VALID,85.1688,VALID,0,VALID,26.2524,VALID,72,VALID,1.03906,
2010-09-19, 03:31:04,VALID,1004.55,VALID,0,VALID,85.2756,VALID,0,VALID,26.2544,VALID,111,VALID,0.969531,
2010-09-19, 03:32:04,VALID,1004.54,VALID,0,VALID,85.3748,VALID,0,VALID,26.2544,VALID,83,VALID,0.854297,
2010-09-19, 03:33:04,VALID,1004.53,VALID,0,VALID,85.3519,VALID,0.100563,VALID,26.2329,VALID,91,VALID,0.545703,
2010-09-19, 03:34:04,VALID,1004.55,VALID,0,VALID,85.2756,VALID,0,VALID,26.2719,VALID,59,VALID,0.416406,
2010-09-19, 03:35:04,VALID,1004.57,VALID,0,VALID,85.1993,VALID,0,VALID,26.3518,VALID,103,VALID,1.68164,
2010-09-19, 03:36:04,VALID,1004.59,VALID,0,VALID,84.7263,VALID,0,VALID,26.4667,VALID,104,VALID,1.20586,
2010-09-19, 03:37:04,VALID,1004.57,VALID,0,VALID,84.528,VALID,0,VALID,26.5056,VALID,97,VALID,0.776172,
2010-09-19, 03:38:04,VALID,1004.56,VALID,0,VALID,84.2228,VALID,0,VALID,26.5056,VALID,114,VALID,0.866016,
2010-09-19, 03:39:04,VALID,1004.59,VALID,0,VALID,84.2534,VALID,0,VALID,26.5466,VALID,109,VALID,0.515234,
2010-09-19, 03:40:04,VALID,1004.58,VALID,0,VALID,84.1923,VALID,0,VALID,26.5271,VALID,81,VALID,1.06211,
2010-09-19, 03:41:04,VALID,1004.55,VALID,0,VALID,84.1618,VALID,0,VALID,26.5661,VALID,63,VALID,0.855469,
2010-09-19, 03:42:04,VALID,1004.53,VALID,0,VALID,83.6888,VALID,0,VALID,26.562,VALID,109,VALID,1.24961,
2010-09-19, 03:43:04,VALID,1004.57,VALID,0,VALID,83.7193,VALID,0,VALID,26.644,VALID,107,VALID,1.17578,
2010-09-19, 03:44:04,VALID,1004.58,VALID,0,VALID,83.6507,VALID,0,VALID,26.6245,VALID,76,VALID,0.538672,
2010-09-19, 03:45:04,VALID,1004.56,VALID,0,VALID,84.0169,VALID,0,VALID,26.5855,VALID,354,VALID,0.950391,